This demonstration page uses our WeatherBlox Daily Observations layout. Learn more.

Left ArrowRight Arrow

36.19886, -115.1175

Hourly Observations for July 4, 2022

Temp ( °F °C ) Dew Point ( °F °C ) Humidity (%) Winds ( mph kmh ) Pressure ( in mb ) Visibility ( mi km ) Precip ( " mm )
12:53 am 00:53 Clear 87 30.6 28 -2.2 12 12 SSW 10 17 29.73 1007 10 16 0.00 0.00
1:53 am 01:53 Clear 84 28.9 30 -1.1 14 14 S 10 17 29.74 1007 10 16 0.00 0.00
2:53 am 02:53 Clear 83 28.3 33 0.6 17 17 S 10 17 29.74 1007 10 16 0.00 0.00
3:53 am 03:53 Clear 79 26.1 33 0.6 19 19 E 5 7 29.75 1007 10 16 0.00 0.00
4:53 am 04:53 Clear 76 24.4 33 0.6 21 21 E 7 11 29.77 1008 10 16 0.00 0.00
5:53 am 05:53 Sunny 77 25 35 1.7 22 22 NNE 3 6 29.79 1009 10 16 0.00 0.00
6:53 am 06:53 Sunny 80 26.7 36 2.2 20 20 ESE 3 6 29.80 1009 10 16 0.00 0.00
7:53 am 07:53 Sunny 82 27.8 36 2.2 19 19 SE 10 17 29.82 1010 10 16 0.00 0.00
8:53 am 08:53 Sunny 86 30 36 2.2 17 17 SE 10 17 29.83 1010 10 16 0.00 0.00
9:53 am 09:53 Sunny 89 31.7 34 1.1 14 14 ESE 15 24 29.83 1010 10 16 0.00 0.00
10:53 am 10:53 Sunny 91 32.8 34 1.1 13 13 ESE 8 13 29.83 1010 10 16 0.00 0.00
11:53 am 11:53 Sunny 93 33.9 32 0 11 11 SE 5 7 29.82 1010 10 16 0.00 0.00
12:53 pm 12:53 Sunny 96 35.6 32 0 10 10 ESE 13 20 29.79 1009 10 16 0.00 0.00
1:53 pm 13:53 Sunny 98 36.7 25 -3.9 7 7 SSW 10 17 29.77 1008 10 16 0.00 0.00
2:53 pm 14:53 Sunny 100 37.8 22 -5.6 6 6 SSW 13 20 29.75 1008 10 16 0.00 0.00
3:53 pm 15:53 Sunny 101 38.3 23 -5 6 6 SSW 14 22 29.74 1007 10 16 0.00 0.00
4:53 pm 16:53 Sunny 100 37.8 24 -4.4 7 7 SSW 13 20 29.73 1007 10 16 0.00 0.00
5:53 pm 17:53 Sunny 99 37.2 27 -2.8 8 8 SW 14 22 29.72 1006 10 16 0.00 0.00
6:53 pm 18:53 Sunny 98 36.7 26 -3.3 8 8 SSW 15 24 29.73 1007 10 16 0.00 0.00
7:53 pm 19:53 Sunny 96 35.6 27 -2.8 8 8 SW 10 17 29.74 1007 10 16 0.00 0.00
8:53 pm 20:53 Clear 93 33.9 28 -2.2 10 10 SW 12 19 29.75 1007 10 16 0.00 0.00
9:53 pm 21:53 Clear 92 33.3 30 -1.1 11 11 SSW 8 13 29.77 1008 10 16 0.00 0.00
10:53 pm 22:53 Clear 89 31.7 30 -1.1 12 12 S 8 13 29.79 1009 10 16 0.00 0.00
11:53 pm 23:53 Clear 89 31.7 26 -3.3 10 10 S 10 17 29.79 1009 10 16 0.00 0.00

Powered by AerisWeather